Weather History for Buffalo, WY

Change the Weather History Date:

Sunday, October 20, 2013

  Actual Average Record
Temperature  
Mean Temperature 40 °F 45 °F  
Max Temperature 45 °F 56 °F 79 °F (2014)
Min Temperature 34 °F 33 °F 30 °F (2006)
Degree Days  
Heating Degree Days 25 20  
Month to date heating degree days 444 348  
Since 1 July heating degree days 596 662  
Cooling Degree Days 0 0  
Month to date cooling degree days 0 0  
Year to date cooling degree days 709 491  
Moisture  
Dew Point 33 °F    
Average Humidity 76    
Maximum Humidity 92    
Minimum Humidity 59    
Precipitation  
Precipitation 0.05 in 0.02 in 0.75 in (2007)
Month to date precipitation 1.95 0.75  
Year to date precipitation 9.71 12.33  
Sea Level Pressure  
Sea Level Pressure 30.01 in    
Wind  
Wind Speed 17 mph (NNW)    
Max Wind Speed 37 mph    
Max Gust Speed 48 mph    
Visibility 10 miles    
Events Rain    
T = Trace of Precipitation, MM = Missing Value Source: NWS Daily Summary

Daily Weather History Graph

Daily Weather History Graph

Search for Another Location

Airport:

Trip Planner

Search our weather history database for the weather conditions in past years. The results will help you decide how hot, cold, wet, or windy it might be!

Date:

Astronomy

Oct. 20, 2013 Rise Set
Actual Time 7:28 AM MDT 6:13 PM MDT
Civil Twilight 6:59 AM MDT 6:43 PM MDT
Nautical Twilight 6:25 AM MDT 7:17 PM MDT
Astronomical Twilight 5:51 AM MDT 7:50 PM MDT
Moon 7:19 PM MDT (10/20) 9:13 AM MDT (10/20)
Length of Visible Light 11h 44m
Length of Day
10h 45m
Full, 97% of the Moon is Illuminated
Oct 20
Full
Oct 26
Last Quarter
Nov 3
New
Nov 9
First Quarter
Nov 17
Full

Hourly Weather History & Observations

Time (MDT) Temp. Windchill Dew Point Humidity Pressure Visibility Wind Dir Wind Speed Gust Speed Precip Events Conditions
12:27 AM 41.0 °F 30.7 °F 37.4 °F 87% 29.96 in 10.0 mi North 25.3 mph 35.7 mph 0.00 in Rain Light Rain
12:37 AM 39.2 °F 28.5 °F 37.4 °F 93% 29.97 in 10.0 mi North 24.2 mph 36.8 mph 0.00 in Rain Light Rain
12:53 AM 39.9 °F 29.7 °F 37.0 °F 89% 29.93 in 10.0 mi NNW 23.0 mph 35.7 mph 0.00 in Rain Light Rain
1:08 AM 39.2 °F 29.0 °F 35.6 °F 87% 29.98 in 10.0 mi NNW 21.9 mph 29.9 mph 0.01 in Rain Light Rain
1:53 AM 39.0 °F 32.8 °F 36.0 °F 89% 29.94 in 10.0 mi NNW 9.2 mph 20.7 mph 0.02 in Rain Light Rain
1:59 AM 37.4 °F 26.9 °F 35.6 °F 93% 29.98 in 10.0 mi NNW 20.7 mph 27.6 mph 0.00 in Rain Light Rain
2:10 AM 37.4 °F 27.8 °F 35.6 °F 93% 29.98 in 10.0 mi NNW 17.3 mph 27.6 mph 0.01 in Rain Light Rain
2:40 AM 37.4 °F 26.1 °F 33.8 °F 87% 29.99 in 10.0 mi NNW 24.2 mph 33.4 mph 0.02 in Rain Light Rain
2:53 AM 37.9 °F 27.6 °F 34.0 °F 86% 29.93 in 10.0 mi NW 20.7 mph 32.2 mph 0.02 in Rain Light Rain
3:00 AM 37.4 °F 26.6 °F 33.8 °F 87% 29.98 in 10.0 mi NW 21.9 mph 28.8 mph 0.00 in Rain Light Rain
3:53 AM 41.0 °F 31.1 °F 32.0 °F 70% 29.92 in 10.0 mi NW 23.0 mph 28.8 mph 0.00 in   Overcast
4:53 AM 41.0 °F 32.2 °F 30.9 °F 67% 29.92 in 10.0 mi NW 18.4 mph 33.4 mph 0.00 in   Partly Cloudy
5:53 AM 41.0 °F 30.5 °F 30.9 °F 67% 29.93 in 10.0 mi NNW 26.5 mph 40.3 mph N/A   Clear
6:53 AM 39.9 °F 28.4 °F 27.0 °F 60% 29.94 in 10.0 mi NW 29.9 mph 41.4 mph N/A   Clear
7:53 AM 39.9 °F 30.0 °F 30.0 °F 68% 29.98 in 10.0 mi NNW 21.9 mph 36.8 mph N/A   Overcast
8:53 AM 39.9 °F 30.2 °F 32.0 °F 73% 29.99 in 10.0 mi NNW 20.7 mph 28.8 mph N/A   Overcast
9:53 AM 41.0 °F 30.5 °F 32.0 °F 70% 30.01 in 10.0 mi NNW 26.5 mph 40.3 mph 0.00 in   Overcast
10:53 AM 41.0 °F 30.7 °F 34.0 °F 76% 30.03 in 10.0 mi NNW 25.3 mph 39.1 mph 0.01 in   Overcast
11:53 AM 39.9 °F 29.5 °F 34.0 °F 79% 30.04 in 10.0 mi North 24.2 mph 34.5 mph N/A   Overcast
12:53 PM 42.1 °F 32.8 °F 35.1 °F 76% 30.05 in 10.0 mi North 21.9 mph 27.6 mph 0.00 in   Overcast
1:03 PM 42.8 °F 33.3 °F 35.6 °F 76% 30.05 in 10.0 mi North 24.2 mph 35.7 mph N/A   Overcast
1:18 PM 42.8 °F 33.8 °F 33.8 °F 70% 30.04 in 10.0 mi North 21.9 mph 36.8 mph N/A   Overcast
1:53 PM 42.1 °F 31.5 °F 34.0 °F 73% 30.04 in 10.0 mi North 28.8 mph 36.8 mph N/A   Overcast
2:53 PM 37.9 °F 27.6 °F 33.1 °F 83% 30.06 in 10.0 mi NNW 20.7 mph 35.7 mph 0.00 in Rain Light Rain
3:53 PM 44.1 °F 35.0 °F 33.1 °F 65% 30.01 in 10.0 mi North 24.2 mph 33.4 mph 0.00 in   Partly Cloudy
4:53 PM 39.9 °F 30.5 °F 34.0 °F 79% 30.05 in 10.0 mi North 19.6 mph 24.2 mph 0.00 in   Partly Cloudy
5:53 PM 37.9 °F 31.5 °F 34.0 °F 86% 30.06 in 10.0 mi North 9.2 mph 21.9 mph N/A   Partly Cloudy
6:53 PM 37.0 °F - 34.0 °F 89% 30.10 in 10.0 mi Calm Calm - N/A   Mostly Cloudy
7:53 PM 36.0 °F 32.1 °F 33.1 °F 89% 30.11 in 10.0 mi SW 4.6 mph - N/A   Scattered Clouds
8:53 PM 35.1 °F 31.0 °F 30.9 °F 85% 30.11 in 10.0 mi SSW 4.6 mph - N/A   Clear
9:53 PM 37.0 °F - 30.9 °F 79% 30.10 in 10.0 mi Calm Calm - N/A   Overcast
10:53 PM 37.0 °F 31.0 °F 32.0 °F 82% 30.11 in 10.0 mi NW 8.1 mph - 0.00 in Rain Light Rain
11:53 PM 36.0 °F 30.3 °F 32.0 °F 86% 30.10 in 10.0 mi WSW 6.9 mph - 0.01 in   Overcast